Find Starlink 36814

NORAD ID: 67904 Int'l Des: 2026-036 Owner: SPXS Country: US Constellation: starlink operational
LEOCIRCULAR

当前视图

正在加载3D地球...

关于 Starlink 36814

正在加载描述...

即将过境

Passes for default location (London). Set your location on the main map for personalized predictions.

高度历史

Loading altitude history...

两行轨道根数

1 67904U 26036A 26145.75560432 .00009019 00000-0 33679-3 0 9993
2 67904 42.9987 170.4660 0001224 259.6018 100.4696 15.27586800 15500
Epoch: May 25, 2026 • Age: 23 hours

当前状态

高度 495.5 km
速度 7.62 km/s
星下点 -43.11°S, 71.61°W
发射日期 Feb 22, 2026
运行时间 0.2 years
类型 internet

技术详情

分类 Payload
质量 575.00 kg
干质量 530.00 kg
总质量 575.00 kg
长度 0.30 m
直径 4.10 m
跨度 29.00 m
形状 Box + pan
制造商 SPXS
平台类型 Starlink V2MO
阶段状态 In Orbit
所有者/国家 SPXS/US

Most Searched